GFSNW_prec_cthk_000.txt.gz
RH
37 37 37 37 38 38 43 46 49 48 50 50 49 50 47 46 47 48 48 47 47 48 49 49 47 47 48 50 52 55 55 57 59 53 51 48 50 54 53 62 62 65 73 48
39 38 37 37 38 39 40 46 48 50 50 58 57 52 52 51 50 51 51 52 53 53 53 54 52 54 55 57 58 64 63 65 64 52 53 56 56 56 59 65 73 72 87 51
41 40 39 38 38 39 40 42 49 48 52 56 56 56 58 58 58 57 57 58 58 58 60 59 60 59 60 62 61 64 67 67 72 66 62 67 69 64 65 76 85 73 71 54
44 42 41 40 40 40 40 41 44 45 52 55 57 57 59 61 64 64 63 64 64 64 67 62 63 61 61 62 64 67 70 71 70 66 66 72 72 66 62 71 69 84 53 57
46 44 42 42 40 40 41 44 44 44 49 51 53 55 58 59 61 62 64 67 68 69 69 67 68 65 67 66 66 72 74 76 76 74 69 72 71 60 55 65 65 64 64 58
46 48 45 45 42 42 44 43 43 45 50 50 53 55 57 57 60 63 66 69 71 76 73 72 70 69 67 68 69 73 77 79 82 76 68 76 79 61 55 57 62 63 69 66
51 52 51 51 51 45 46 47 48 47 54 54 54 53 56 60 62 64 66 70 73 73 73 74 74 73 71 70 68 74 79 83 84 81 81 84 56 48 52 55 56 58 63 67
62 62 60 57 55 54 54 52 52 54 56 54 56 56 55 57 58 59 61 65 68 68 70 76 77 74 73 69 67 69 73 82 85 86 75 57 54 50 57 60 59 63 70 74
68 72 68 64 64 64 69 63 60 58 60 58 58 62 61 60 62 63 62 63 64 65 71 76 83 81 73 72 71 72 74 82 90 89 87 73 55 56 60 64 70 77 79 84
71 76 76 73 75 71 68 62 64 67 65 62 64 63 65 64 67 66 67 72 74 76 79 81 79 78 71 79 87 87 89 92 92 89 93 78 63 68 70 84 78 77 85 86
83 81 79 82 80 78 72 65 69 69 72 70 70 64 63 61 63 74 74 76 74 82 89 91 90 91 85 90 80 86 88 98 97 96 95 86 69 74 83 80 78 81 78 86
79 82 79 83 79 79 80 81 79 83 86 83 73 73 62 64 69 75 84 80 82 85 90 92 94 93 92 90 87 81 92 90 85 78 71 68 75 81 85 82 85 83 90 86
83 81 83 86 88 85 84 84 86 88 89 87 87 73 69 74 72 79 87 87 87 89 87 94 95 92 91 90 87 86 87 90 85 81 75 81 85 85 86 83 89 90 93 94
91 89 90 90 91 94 97 88 98 93 94 93 81 83 78 77 79 80 81 85 94 92 92 94 92 93 91 87 90 91 90 87 93 88 83 71 82 85 86 87 88 91 92 96
94 93 93 91 95 97 98 96 93 98 98 91 85 84 83 79 78 81 86 89 90 92 95 95 91 91 95 86 86 85 86 91 97 83 74 83 72 80 86 85 86 89 94 91
97 97 94 95 96 99 98 97 94 97 97 98 88 83 83 87 86 83 81 88 89 93 90 87 87 89 98 94 84 75 80 88 82 80 82 81 78 75 81 87 89 88 87 80
86 90 92 95 98 99 99 95 92 97 99 98 94 89 81 87 87 84 84 86 83 85 85 82 85 90 100 92 80 56 72 73 73 80 85 80 81 84 82 81 72 67 68 70
87 88 90 94 99 99 99 99 99 98 99 98 97 88 84 85 91 89 88 89 89 86 86 81 81 78 88 86 66 62 62 64 70 78 84 87 83 79 70 64 63 60 64 72
83 85 90 94 97 98 98 99 98 99 99 98 91 84 89 88 92 92 94 98 96 90 84 81 86 82 86 66 58 62 64 75 79 84 82 81 73 69 66 62 59 65 70 76
75 83 86 88 91 95 96 97 97 98 98 98 90 89 95 94 96 97 98 95 94 92 74 83 86 73 68 65 64 71 81 81 84 79 68 69 67 65 61 64 71 76 82 91
67 70 76 79 84 87 92 95 96 96 97 97 95 96 96 95 97 95 94 93 93 93 74 89 82 73 69 74 84 87 85 79 75 73 72 70 67 66 67 71 79 85 93 97
58 62 67 71 77 79 83 86 89 92 95 93 91 93 92 90 89 93 94 95 95 91 82 86 85 76 79 84 81 79 78 76 73 72 70 63 62 66 67 70 79 87 90 89
52 53 58 59 68 76 71 73 79 88 96 95 92 90 91 94 94 99 98 98 98 97 96 93 83 85 82 79 77 75 74 73 73 70 64 59 65 67 66 71 83 85 83 79
47 49 53 56 62 61 64 71 78 83 90 95 91 89 88 92 85 89 95 85 85 88 89 81 82 78 75 71 72 71 69 64 62 62 58 58 67 74 79 83 78 79 75 72
51 51 52 50 52 58 63 67 72 81 86 86 82 79 79 79 78 76 79 83 80 73 67 70 71 68 69 64 55 54 53 55 59 58 60 69 78 85 83 76 82 79 74 71
55 52 49 48 53 54 57 61 65 63 66 66 64 62 64 61 60 61 63 64 53 41 44 42 47 47 46 44 46 48 54 61 66 69 79 85 94 91 82 82 84 78 75 73
57 52 52 55 53 51 51 47 50 52 54 56 57 60 50 48 55 53 43 38 34 38 42 44 42 41 42 45 47 49 57 64 71 88 95 98 97 89 83 89 81 78 75 71

GFSNW_prec_cthk_003.txt.gz
RH
35 36 36 37 38 38 41 47 53 45 46 54 49 50 47 46 47 46 46 46 47 49 51 51 49 49 48 47 47 51 54 55 58 51 49 46 47 50 56 63 65 64 70 56
36 36 35 36 36 39 39 47 50 48 48 62 56 51 51 51 49 49 49 52 52 51 53 55 52 53 54 54 54 59 59 62 62 50 55 56 55 52 52 59 65 67 88 56
38 38 37 35 34 35 38 44 49 49 52 56 57 55 55 56 53 52 53 55 55 57 58 57 58 58 59 60 61 62 62 62 67 67 62 63 64 56 53 62 76 64 65 51
40 40 39 37 35 34 35 39 41 40 50 52 57 56 57 60 60 58 58 61 60 62 65 61 59 60 61 63 65 67 71 70 70 63 64 67 65 55 52 58 58 67 48 58
44 42 40 39 37 36 38 42 40 39 44 44 48 50 54 56 57 56 60 61 64 64 66 67 68 66 68 68 68 72 75 78 76 73 67 67 66 56 53 55 54 56 56 52
44 43 42 40 39 39 44 38 38 44 41 43 44 46 49 52 53 57 56 60 62 65 64 64 63 65 65 64 68 73 77 83 86 80 68 75 78 65 60 61 62 62 65 63
43 43 42 42 42 42 44 45 45 45 49 48 48 47 48 50 53 55 57 57 60 61 58 58 58 56 54 54 54 66 78 84 89 87 87 86 62 55 58 60 64 61 62 62
43 42 42 43 46 46 50 54 54 49 52 49 49 49 51 53 57 56 57 58 61 61 61 65 67 61 63 55 53 54 58 76 85 89 80 68 67 60 65 65 61 60 64 72
48 48 49 50 50 52 57 62 62 61 57 59 57 54 54 55 59 60 64 65 60 61 68 74 80 73 66 63 62 66 69 81 92 93 92 85 61 60 65 65 64 73 77 80
58 58 60 59 60 62 65 69 66 72 75 66 66 64 59 59 60 65 67 65 62 62 71 78 80 80 69 79 87 84 86 91 91 89 93 72 59 65 66 77 77 80 87 89
67 66 67 69 67 70 74 74 73 73 78 68 64 61 58 60 66 74 73 75 71 72 76 81 84 87 78 78 74 81 85 99 99 98 97 89 73 76 91 90 80 85 85 90
80 79 79 82 83 82 81 76 76 79 78 74 63 69 58 65 67 73 82 83 79 81 85 86 87 89 90 89 86 78 82 82 81 82 77 71 75 78 84 80 79 83 92 87
90 88 89 88 90 88 82 80 74 76 81 79 72 71 66 76 76 82 87 90 86 88 86 90 93 92 88 92 86 88 87 86 86 81 72 79 79 83 87 90 92 86 88 90
91 92 92 91 91 88 86 89 90 93 93 89 83 82 76 78 85 84 87 89 92 91 90 94 95 95 92 86 82 85 88 91 90 81 82 84 83 91 87 88 90 88 89 90
96 95 93 91 91 92 95 95 93 96 99 93 87 86 83 83 84 86 89 91 89 91 95 92 90 89 94 84 80 81 84 83 97 96 86 90 79 84 84 86 88 90 89 83
91 96 97 98 98 98 98 97 92 96 99 98 90 83 80 82 86 86 87 86 89 95 94 87 85 88 97 88 75 70 80 88 92 87 88 86 83 78 83 89 88 82 77 72
78 87 90 92 94 98 99 95 90 94 99 98 95 87 79 80 87 91 91 91 93 95 94 85 90 90 97 90 77 54 79 85 80 79 81 79 79 84 84 81 75 70 66 65
63 68 75 85 87 94 95 95 91 93 99 99 98 90 86 87 92 96 94 93 95 93 92 89 93 84 92 84 67 68 70 75 75 75 78 89 85 81 76 73 62 56 54 56
58 63 64 75 82 84 86 92 93 97 99 98 97 95 96 92 94 97 96 95 96 95 88 85 91 76 81 68 72 71 70 75 81 84 87 84 79 73 69 62 57 56 53 56
55 58 65 74 81 83 86 91 98 98 98 98 97 96 98 94 97 98 98 97 97 97 78 81 84 70 69 71 72 73 77 76 81 85 79 76 73 72 64 64 65 63 60 64
56 58 64 70 74 84 87 91 92 95 96 96 93 95 96 97 98 98 98 98 96 94 70 86 85 74 73 74 76 77 77 76 74 73 72 74 75 70 68 63 61 56 59 71
55 56 60 65 68 72 77 78 81 85 88 85 89 88 88 90 90 93 95 94 93 89 83 86 78 71 74 74 73 75 73 67 65 68 70 75 75 64 56 57 56 60 70 77
51 48 53 52 62 66 64 64 72 79 78 79 79 74 69 72 77 82 83 88 92 90 92 87 78 82 76 73 71 71 73 74 69 68 70 57 48 50 59 65 76 77 76 81
43 47 52 51 54 50 53 59 73 76 74 71 66 67 66 73 76 79 85 79 77 78 79 72 67 76 67 66 67 66 60 51 43 42 42 43 50 58 69 82 86 85 80 82
52 50 52 47 47 51 53 54 58 63 67 68 66 63 61 64 67 71 73 75 66 55 44 40 52 66 58 44 39 37 35 32 34 40 45 50 58 64 81 92 90 83 86 81
55 47 48 47 50 53 57 58 59 63 63 59 56 60 63 63 65 63 60 53 38 36 45 48 47 45 37 34 34 33 34 37 42 49 63 75 75 79 97 98 88 90 85 81
55 52 51 57 58 61 62 59 58 57 53 53 58 56 51 47 56 52 44 43 41 42 45 48 51 43 38 42 40 40 40 44 50 52 74 86 89 98 98 93 90 90 83 82

GFSNW_prec_cthk_006.txt.gz
RH
33 36 38 38 38 37 40 49 58 41 43 55 52 51 47 44 47 46 46 47 46 48 49 51 51 50 49 47 45 51 56 55 60 51 48 50 50 55 59 79 76 74 73 60
33 35 35 35 36 39 40 49 50 44 48 67 53 49 50 51 50 50 50 51 49 49 52 55 55 55 55 54 52 58 56 59 60 50 54 56 57 52 53 59 70 75 91 64
35 36 36 35 32 33 37 45 51 48 51 54 55 54 55 55 53 53 52 52 52 56 57 59 59 60 60 59 59 60 59 59 64 70 63 64 65 56 53 56 65 63 67 56
37 38 38 38 35 32 33 38 42 41 52 49 53 55 55 59 61 57 54 58 58 57 64 60 59 61 62 62 64 66 67 69 66 64 61 66 66 59 56 54 55 63 52 60
40 39 39 39 37 35 38 45 41 38 40 41 46 44 47 49 53 51 58 55 56 56 58 60 62 60 60 58 58 62 66 70 70 71 59 64 65 55 52 54 57 58 57 56
43 42 42 41 39 37 43 38 36 41 40 39 42 45 45 47 46 49 47 50 53 53 53 54 53 51 51 50 53 55 62 76 81 77 69 73 75 62 60 65 64 65 65 56
46 45 43 41 40 39 41 41 44 39 44 43 42 42 42 46 49 52 52 52 55 55 54 53 49 48 45 46 48 55 66 79 84 89 86 85 64 56 57 62 65 66 65 57
47 45 42 41 40 39 41 42 43 45 47 46 52 51 45 46 52 51 49 50 56 54 55 61 62 55 60 52 53 55 59 76 85 89 82 69 70 57 68 68 65 67 72 79
48 47 44 42 41 40 41 46 45 50 50 50 53 57 56 62 66 66 60 57 58 58 61 65 69 62 56 56 54 59 67 77 87 87 89 82 60 58 64 70 72 84 86 86
46 47 47 46 46 47 47 47 50 55 58 54 61 63 66 63 67 68 70 67 66 66 75 81 80 77 63 70 80 80 85 90 89 85 87 71 60 68 76 90 95 89 91 96
54 51 51 54 55 54 55 54 58 66 70 61 66 69 69 68 68 67 64 75 71 76 80 84 83 86 79 76 72 79 83 91 94 90 93 82 74 78 91 86 85 91 86 89
62 54 55 61 61 66 64 62 64 72 75 78 76 75 67 72 69 70 74 80 80 85 91 91 91 92 89 85 84 73 86 82 78 75 78 60 66 80 81 88 91 87 94 89
71 64 63 69 71 73 77 78 77 80 83 81 78 69 64 69 70 74 80 81 85 87 86 91 94 93 90 90 88 85 89 78 77 75 60 65 70 75 84 84 90 93 95 91
78 82 81 84 89 87 86 87 86 90 92 88 80 76 76 77 79 83 85 88 90 90 91 93 93 92 90 84 80 84 90 85 81 71 66 71 70 80 86 88 92 95 92 81
94 93 93 92 91 94 96 97 95 97 98 90 86 80 76 79 85 88 91 90 90 91 95 94 90 91 96 80 82 83 86 82 90 79 73 85 69 68 82 86 97 90 82 78
93 94 97 97 97 98 98 96 89 94 97 97 88 82 82 81 85 87 91 88 88 91 93 93 91 89 97 90 73 75 76 83 84 81 72 68 74 79 82 88 82 83 80 81
80 88 93 95 97 99 98 90 86 91 97 99 96 91 81 81 83 89 89 89 89 92 91 88 93 92 97 94 82 60 79 79 71 71 80 81 79 83 81 77 79 83 84 76
49 56 66 78 87 96 98 97 98 95 98 97 96 87 84 86 88 92 93 92 91 93 91 88 93 90 93 91 69 71 66 67 71 76 82 84 80 76 77 80 84 78 74 68
48 54 58 66 73 86 84 94 92 97 96 93 88 87 87 88 90 92 93 96 97 97 90 88 96 84 83 74 70 72 74 74 74 74 76 78 75 75 69 66 66 72 71 63
60 60 65 68 68 75 69 72 78 77 77 79 84 86 90 90 91 92 94 95 96 96 80 86 91 77 69 73 72 70 68 66 70 68 73 77 74 77 71 71 68 64 57 47
57 60 62 62 63 67 71 77 82 85 87 83 80 83 88 90 96 99 98 98 98 97 76 87 77 66 58 62 62 68 68 67 67 69 71 70 74 74 68 58 55 47 44 47
63 64 63 62 63 65 70 70 72 76 84 85 82 85 92 94 97 97 97 96 92 79 71 74 64 52 54 57 60 65 68 67 65 64 63 55 50 49 41 36 39 44 50 59
61 59 65 66 69 75 71 68 71 70 69 73 75 76 73 72 72 75 74 75 70 72 72 63 55 68 71 73 63 59 61 59 48 38 32 29 30 31 39 43 49 59 64 74
54 53 53 55 56 56 59 64 69 71 71 69 70 71 69 65 64 67 71 68 74 74 67 53 54 62 68 65 64 64 55 43 37 30 29 28 30 34 41 50 64 77 80 93
51 50 50 48 49 58 60 62 61 65 64 65 62 58 58 60 64 64 66 66 63 56 47 50 61 72 67 64 60 51 41 36 34 33 32 34 37 41 45 58 83 88 96 91
56 52 53 54 56 57 56 60 63 64 64 58 53 57 58 58 60 60 59 57 43 37 50 57 55 52 52 51 47 49 50 45 37 32 35 40 43 48 57 77 91 96 96 95
60 57 56 61 57 59 57 60 61 60 57 57 58 62 59 51 58 49 44 46 46 48 47 46 45 49 52 52 49 47 47 40 38 38 39 44 47 58 75 89 95 98 96 92

GFSNW_prec_cthk_009.txt.gz
RH
31 33 36 36 37 37 46 48 53 39 45 49 52 51 47 46 46 46 47 48 49 49 51 52 53 54 52 52 49 55 55 54 62 53 52 55 56 60 63 81 86 81 87 67
32 32 34 36 37 38 40 44 44 41 48 59 53 47 47 50 53 52 53 52 50 49 53 57 57 55 56 55 55 57 56 61 67 57 58 63 65 58 58 66 70 70 88 68
32 32 33 33 33 35 38 43 48 44 48 51 50 50 52 52 51 52 54 54 55 57 59 59 58 56 59 57 56 57 56 58 61 66 59 64 66 56 52 62 72 68 69 63
33 33 34 34 34 32 34 36 40 43 50 52 50 50 49 52 55 53 51 56 56 56 61 59 58 57 53 51 50 51 53 55 57 55 60 64 64 58 54 63 63 71 58 67
34 35 36 36 35 35 36 40 39 34 39 41 43 41 45 47 48 45 49 47 50 49 53 54 55 52 51 48 43 49 56 63 62 63 56 65 69 56 56 65 68 63 63 65
37 38 39 39 37 38 38 36 35 35 36 38 42 44 44 44 43 44 42 43 43 47 47 45 48 47 46 46 50 52 58 66 73 70 69 76 74 52 59 65 63 64 71 72
42 42 42 42 40 38 39 38 38 34 39 40 39 41 41 45 51 52 48 48 50 52 49 47 45 42 40 42 41 48 56 64 76 82 84 87 58 54 53 58 64 67 68 74
45 46 45 44 42 40 38 39 38 36 41 40 37 38 43 48 49 54 53 55 58 62 60 62 56 51 52 47 55 58 62 74 81 83 84 70 59 58 62 65 62 74 77 80
48 48 47 45 42 40 39 39 41 42 39 40 39 41 45 51 56 58 59 69 66 69 70 72 70 69 59 58 55 61 66 71 79 83 85 78 57 59 67 71 72 79 87 87
47 48 48 46 43 41 38 39 42 44 45 40 43 46 49 52 61 69 71 71 70 72 74 78 77 77 71 77 77 73 78 79 80 82 82 72 58 70 68 78 75 75 81 83
46 47 47 46 44 43 43 43 46 47 49 48 51 54 54 61 71 77 75 79 77 84 83 83 83 85 85 80 74 75 81 87 92 89 88 82 68 65 75 74 73 81 74 79
59 59 58 57 57 52 48 50 50 51 56 56 60 58 59 68 73 79 80 81 79 80 84 83 85 89 91 88 86 78 86 83 84 83 75 63 69 75 70 81 81 75 84 86
71 71 67 69 70 76 75 60 54 56 61 61 64 57 64 70 75 80 83 80 78 80 82 89 93 93 91 91 87 87 87 87 85 83 70 66 74 70 73 73 77 81 84 94
76 69 71 78 81 83 79 72 69 69 71 76 75 68 68 72 76 78 80 84 85 85 89 93 95 95 93 88 86 89 92 93 86 78 77 75 70 77 78 79 83 87 83 81
76 77 78 82 88 87 81 81 82 88 93 90 85 78 80 83 84 84 82 82 86 91 94 95 93 94 95 84 84 85 85 83 91 85 76 84 74 76 84 87 85 78 76 77
79 84 90 92 93 92 92 90 87 90 96 96 89 82 76 80 82 82 83 84 87 92 93 93 87 86 94 86 76 75 74 83 87 90 82 79 80 84 90 81 72 78 78 70
89 93 96 98 98 97 97 93 90 93 96 96 89 82 77 74 74 76 79 81 87 92 93 86 88 87 97 95 89 67 80 82 84 76 80 84 84 80 76 75 82 75 68 69
76 85 90 97 97 97 96 96 96 98 99 99 94 85 86 84 84 85 80 79 85 85 85 86 88 84 88 90 75 74 74 77 76 78 77 78 74 72 72 74 73 73 71 65
55 65 74 79 84 90 93 97 96 94 97 97 93 87 92 89 88 91 88 85 86 85 79 82 89 81 85 82 77 78 74 73 66 66 65 64 71 70 75 67 60 55 57 57
69 69 69 71 72 70 70 81 83 80 98 98 91 85 91 86 85 86 80 83 87 86 74 83 85 74 65 70 67 62 58 56 57 61 67 74 64 57 52 52 49 46 43 44
79 75 78 79 77 71 73 71 73 75 77 79 74 69 77 79 80 86 92 94 93 88 76 83 77 67 51 48 47 55 63 67 72 75 75 70 58 53 46 38 39 40 38 41
71 79 78 76 76 79 83 82 81 79 81 75 66 66 71 76 79 83 85 87 84 73 70 74 64 50 42 49 55 61 63 68 72 72 66 51 45 39 36 36 36 37 40 44
67 65 71 76 82 86 82 77 75 71 65 67 70 76 77 80 80 81 77 78 72 64 65 58 54 53 57 57 61 63 64 64 66 64 58 52 41 33 36 38 35 41 44 51
62 63 66 64 64 67 68 69 67 69 70 71 76 77 74 73 73 73 69 66 65 69 64 61 64 60 59 63 70 80 79 73 66 54 44 40 39 37 33 35 40 45 51 60
62 60 63 61 66 65 66 67 67 68 68 69 67 67 67 68 67 62 60 61 61 63 60 65 61 64 67 66 64 61 58 52 48 44 42 39 39 41 39 39 40 49 56 73
57 56 54 54 55 56 55 57 59 62 64 63 61 62 62 59 60 62 60 63 56 55 60 59 55 57 58 57 53 47 43 42 42 38 37 39 41 42 46 42 44 56 69 94
60 56 54 55 55 55 57 60 66 68 64 57 53 56 53 53 58 59 53 52 49 47 46 47 47 49 46 43 39 39 43 45 44 43 43 46 47 50 53 48 50 63 89 98

GFSNW_prec_cthk_012.txt.gz
RH
32 33 36 37 38 44 45 46 40 37 43 46 48 46 44 42 43 43 45 48 49 51 49 51 52 53 54 53 53 55 53 55 62 54 55 56 55 57 62 80 77 79 84 64
31 31 35 37 37 39 41 41 41 42 47 48 50 45 47 47 48 49 50 49 48 48 51 55 55 56 56 55 54 53 52 56 58 50 54 54 54 48 57 66 73 76 83 66
32 31 32 34 35 36 39 42 45 43 46 47 44 45 47 48 47 48 50 50 52 54 57 56 55 55 55 52 48 46 46 47 48 55 52 59 55 47 52 63 76 73 64 64
32 32 32 33 32 31 34 38 39 44 52 48 49 50 50 49 49 44 45 46 47 46 47 47 48 49 50 45 41 44 48 54 54 55 56 58 54 57 59 64 60 75 59 62
34 33 34 34 33 32 32 31 33 37 41 43 44 46 44 43 42 44 43 45 44 42 43 44 47 46 48 47 44 46 51 59 61 54 59 66 61 60 60 63 62 61 62 62
35 35 35 36 34 34 32 32 32 30 34 36 38 39 37 40 40 41 43 46 47 48 46 49 50 48 45 42 43 48 57 63 73 64 72 74 66 57 55 56 53 58 64 64
37 37 37 38 37 37 34 33 31 29 34 34 34 36 37 38 38 40 46 45 46 47 51 55 54 54 51 48 47 50 56 68 77 81 83 87 54 53 52 57 58 59 64 70
40 40 40 40 41 40 38 35 33 30 36 36 35 38 38 38 39 43 48 46 46 54 59 65 61 59 52 52 55 60 67 77 82 84 87 73 61 57 61 67 68 65 71 69
45 44 43 43 44 43 41 38 36 35 33 35 34 35 37 41 43 43 48 51 54 61 72 75 76 70 64 62 60 66 73 77 81 83 89 84 61 61 64 72 70 69 66 68
50 48 47 47 46 45 43 42 39 38 36 36 37 37 39 41 44 49 53 58 62 66 77 82 82 80 72 77 73 73 81 84 83 86 85 75 62 64 71 79 71 71 74 75
52 52 51 50 50 48 45 41 39 37 37 38 39 41 44 47 50 55 60 67 66 77 82 85 82 82 80 80 74 78 78 86 90 89 91 87 72 79 86 81 76 77 71 78
49 50 50 48 46 46 44 42 41 41 41 40 40 41 47 53 56 58 70 75 76 81 83 86 87 90 87 85 84 77 86 82 83 80 76 72 78 81 80 83 79 76 83 85
50 50 51 51 50 50 50 58 53 55 61 60 57 49 48 51 57 61 72 76 79 81 81 88 92 92 89 91 89 92 90 84 83 87 70 75 80 78 81 79 82 84 83 80
55 55 56 60 60 61 68 74 70 72 77 77 67 61 59 57 63 70 79 80 84 88 90 93 96 96 95 92 93 93 93 90 91 86 82 80 81 85 83 89 90 82 80 80
71 67 64 62 66 65 75 75 74 76 81 81 78 71 67 70 75 81 84 87 92 92 92 93 95 95 98 91 89 88 85 80 91 83 86 91 78 85 86 86 82 88 87 81
85 79 78 74 74 75 76 79 77 80 88 89 84 78 73 78 82 85 83 83 86 90 90 89 86 86 94 91 85 74 73 81 86 89 93 90 91 90 87 84 85 82 79 69
91 87 84 81 79 80 83 84 84 86 94 93 89 83 79 77 78 81 84 85 85 88 89 83 83 83 92 93 82 60 77 81 86 91 91 87 92 85 78 88 75 63 57 55
91 96 99 97 96 92 90 93 95 96 98 95 91 87 86 85 84 86 85 86 88 87 88 85 84 83 85 83 56 67 70 72 80 85 73 75 74 75 68 62 57 54 56 58
79 92 98 97 96 95 93 99 98 99 99 95 87 87 90 88 93 96 94 90 82 77 75 74 79 78 79 71 76 73 68 70 67 68 67 63 64 59 58 61 59 57 54 54
69 67 72 79 87 92 98 99 99 98 97 93 87 85 87 88 94 95 89 87 89 87 80 86 81 70 65 64 58 54 53 51 51 54 64 76 82 71 62 69 63 57 55 47
74 78 78 76 76 80 85 93 85 80 77 78 79 82 73 68 77 87 92 87 84 83 78 81 76 70 66 54 51 52 54 55 63 75 78 68 66 69 59 52 49 41 35 37
76 81 87 87 86 88 90 88 85 83 81 78 75 75 80 82 83 84 82 80 80 76 73 81 75 73 57 52 53 57 75 82 73 67 68 74 72 68 61 53 45 39 39 42
73 77 83 85 91 95 90 86 84 83 78 75 72 74 78 80 81 83 80 81 79 77 78 71 63 56 59 67 73 68 67 65 65 66 66 67 66 58 46 43 40 43 41 41
66 65 75 75 79 79 80 81 81 83 84 84 82 79 75 73 74 75 75 73 75 77 74 61 58 60 64 67 67 62 62 63 61 57 55 49 42 38 34 35 42 47 46 45
62 65 71 71 73 70 70 74 76 78 78 75 76 77 76 76 75 72 71 71 72 64 61 63 63 64 63 62 61 60 59 54 48 42 38 38 38 38 37 37 45 48 49 50
62 61 62 64 64 65 68 69 70 70 68 66 64 64 65 65 66 67 65 67 59 58 63 64 66 66 63 55 50 47 45 42 40 41 42 42 42 43 44 44 47 53 58 61
63 61 59 59 58 56 56 55 58 61 60 59 55 57 53 52 57 59 57 56 52 57 56 54 56 59 55 52 46 41 45 47 45 42 40 41 44 51 55 55 61 70 73 77

GFSNW_prec_cthk_015.txt.gz
RH
31 33 35 36 37 39 39 36 31 36 39 38 39 39 39 41 42 42 43 45 46 48 48 50 49 51 51 51 50 50 49 50 54 46 46 46 50 56 58 72 72 74 76 59
30 31 35 35 39 43 40 41 38 39 41 46 48 44 44 44 45 46 46 48 48 50 51 53 52 53 51 51 50 47 45 49 52 45 50 46 49 51 53 61 67 73 78 63
31 31 32 35 35 38 40 40 44 42 43 43 43 43 44 46 45 45 46 48 49 50 51 49 47 46 45 44 42 41 41 46 46 54 46 49 50 52 55 64 75 74 67 62
31 31 32 33 32 35 38 38 42 46 48 44 43 44 42 43 44 42 43 44 42 40 42 41 45 45 48 46 46 45 47 49 48 51 55 56 54 57 56 64 62 72 60 59
32 33 32 33 33 32 31 32 38 40 44 44 43 44 43 44 42 40 40 40 39 39 42 43 48 51 51 48 49 51 52 54 55 56 55 58 58 57 62 60 59 62 59 57
33 33 33 34 34 33 31 31 30 32 40 40 41 42 37 38 38 37 36 38 44 42 40 41 44 49 52 54 57 59 61 65 73 64 67 69 61 58 58 58 56 59 65 61
35 35 35 35 35 35 33 31 30 27 34 34 33 33 32 34 35 35 36 36 38 40 42 43 46 49 53 55 57 57 63 71 78 79 81 83 53 55 55 58 57 60 65 67
37 37 37 37 37 37 36 33 32 29 35 35 33 34 34 34 36 37 37 39 40 43 45 50 50 53 50 55 61 64 66 74 81 84 88 75 59 56 57 60 64 65 73 69
41 40 39 39 39 39 38 36 34 32 30 34 33 35 37 40 40 40 41 43 45 48 52 57 63 68 66 66 63 70 76 79 84 86 92 85 62 62 65 70 75 71 72 76
48 45 44 43 42 41 40 38 36 35 34 33 33 33 35 35 37 43 45 48 52 56 61 66 74 78 74 79 74 75 83 85 87 88 88 79 64 64 67 79 76 77 80 83
54 51 50 49 47 46 44 42 40 37 36 35 34 34 34 36 39 44 46 53 53 62 65 71 74 81 80 81 78 81 83 87 88 89 93 85 70 74 80 79 77 82 83 84
56 55 55 54 53 52 50 47 45 41 39 35 33 32 35 39 42 47 54 55 55 64 69 74 80 87 86 86 89 78 87 80 83 83 84 77 80 80 79 82 82 81 87 90
55 55 55 56 56 54 52 50 48 43 41 39 36 43 53 52 56 61 67 67 69 68 71 83 93 93 90 92 89 88 90 85 85 91 84 77 84 82 86 88 86 94 95 93
53 52 52 53 56 54 53 51 51 50 50 54 49 53 56 59 60 62 67 70 73 77 81 86 93 95 92 90 91 94 89 89 94 92 85 81 79 78 91 90 96 97 92 89
55 54 53 53 55 56 56 55 55 56 61 66 61 58 58 62 65 68 73 76 77 83 89 93 92 93 96 91 91 91 84 83 89 87 81 83 76 91 90 92 88 86 82 67
71 65 62 63 62 62 64 68 59 56 65 72 75 70 66 67 71 74 76 82 88 90 89 88 84 85 92 86 81 75 79 82 89 85 81 82 86 88 84 97 88 71 72 65
90 84 83 80 81 79 76 75 73 67 71 76 82 81 76 72 75 80 84 86 86 87 87 84 84 87 95 90 82 71 78 84 87 81 81 86 85 92 92 75 62 53 54 60
98 98 97 97 94 93 93 90 86 82 83 86 89 85 84 82 80 83 87 89 89 88 88 86 86 88 89 85 68 72 80 78 76 74 71 68 65 62 56 55 52 51 61 63
99 98 99 99 98 96 94 99 97 99 96 93 87 86 90 92 93 93 92 91 91 88 85 84 82 82 83 77 77 74 68 63 62 58 57 58 58 58 55 59 66 67 65 65
98 99 99 98 97 99 98 99 99 98 97 95 92 91 93 94 97 99 98 93 84 80 78 80 80 75 75 72 65 59 57 54 55 56 62 67 67 72 69 69 67 66 57 62
82 91 96 98 97 96 95 98 96 96 93 92 93 94 94 91 92 96 92 92 94 91 82 87 84 80 73 67 64 61 56 57 64 74 80 85 78 59 46 45 48 52 60 62
79 77 78 82 84 84 84 89 91 88 91 90 87 86 86 90 92 96 95 90 89 87 83 85 83 78 76 71 66 64 63 71 75 70 56 52 57 61 64 63 56 48 48 48
73 77 88 88 89 88 86 81 82 84 82 81 82 85 88 87 88 91 92 92 89 88 87 83 71 67 66 66 66 67 63 63 58 56 56 57 56 53 50 46 44 44 44 44
72 75 78 78 81 80 80 80 81 85 87 86 87 90 89 88 89 88 85 80 80 83 80 69 66 65 65 61 58 58 59 58 59 57 56 54 44 39 38 40 42 42 43 44
67 68 70 73 70 71 73 76 77 80 82 83 85 87 85 84 83 78 79 81 81 75 68 67 65 64 63 63 61 60 58 55 53 45 41 38 39 40 37 35 40 48 56 60
67 64 65 68 72 74 75 76 77 79 78 75 77 76 75 75 76 75 71 73 65 63 66 62 62 62 62 58 53 50 48 48 43 40 40 40 40 43 45 45 50 58 62 67
64 61 62 64 65 66 63 64 65 66 66 63 63 61 54 57 65 66 64 63 61 59 58 59 59 58 53 51 49 46 44 42 42 43 42 43 45 48 52 54 55 62 68 76

GFSNW_prec_cthk_021.txt.gz
RH
37 36 36 36 33 34 35 29 31 31 31 32 35 33 32 33 34 36 40 42 43 44 45 47 48 49 47 47 43 39 36 37 39 33 38 42 46 50 51 54 56 61 63 48
36 37 39 38 38 39 39 32 35 35 35 38 39 37 36 35 38 42 42 44 45 46 48 50 50 48 43 39 39 41 41 43 41 32 44 47 50 51 50 53 59 59 67 48
36 37 38 41 43 42 39 34 39 36 35 35 36 37 38 41 42 43 44 45 44 44 46 44 43 40 40 42 43 42 40 44 40 42 39 43 47 48 54 59 68 63 58 54
35 36 36 39 41 42 39 37 40 38 40 37 38 39 40 43 44 43 43 44 42 42 43 40 41 41 38 40 41 40 42 48 51 51 49 52 52 55 58 64 64 73 57 59
34 34 33 37 38 40 39 39 42 41 43 41 40 41 40 41 42 41 41 41 40 36 34 33 39 37 35 36 40 44 48 53 56 58 56 57 56 53 57 64 65 69 67 65
33 34 33 34 36 36 36 35 38 42 45 42 42 42 41 42 40 41 38 36 36 35 33 33 34 34 36 38 41 46 51 57 61 57 60 61 56 54 61 63 64 64 65 57
32 33 34 33 33 35 34 32 34 37 46 45 44 42 40 40 36 35 35 33 32 33 33 33 33 34 35 37 43 47 55 62 68 73 70 72 48 58 62 65 60 61 61 60
32 32 34 34 34 34 34 33 30 29 40 41 39 37 36 35 34 35 34 33 33 34 34 36 37 37 32 37 42 47 54 66 75 81 82 71 59 59 62 67 60 61 62 65
36 33 35 36 36 36 35 34 31 28 28 34 34 34 33 35 36 37 38 37 37 37 39 41 42 39 38 41 47 55 60 67 76 88 92 85 64 64 67 67 66 65 69 73
39 37 36 37 37 38 37 36 35 33 30 30 33 33 34 33 35 38 40 40 41 41 46 52 54 57 56 58 58 60 67 75 81 87 90 79 69 71 70 80 75 77 81 84
45 43 41 39 39 39 39 38 38 37 35 35 34 33 33 34 35 39 39 42 42 47 54 59 64 65 62 62 61 65 67 75 88 92 91 85 72 76 80 75 74 83 89 89
53 51 48 46 43 41 40 40 41 40 39 39 38 37 36 35 34 35 38 37 40 47 56 61 63 68 70 71 77 73 76 71 83 88 80 74 78 80 80 80 85 85 90 92
62 60 58 55 52 49 46 45 44 43 44 44 43 40 38 38 38 39 39 42 46 50 55 59 67 72 72 81 82 81 75 77 84 86 74 79 78 82 83 87 92 91 96 94
67 67 66 62 60 57 54 52 51 50 49 49 45 41 38 38 38 38 39 44 50 55 59 64 71 75 76 80 79 80 77 85 89 82 79 81 82 85 89 87 96 96 95 90
68 68 67 66 66 64 62 60 59 56 54 51 45 41 39 38 36 37 40 45 49 54 61 69 74 75 85 85 84 81 85 88 90 86 84 91 85 92 86 93 93 87 82 74
68 69 69 67 63 63 63 61 59 57 57 55 51 44 38 38 38 40 42 45 52 62 68 77 80 83 88 88 87 85 83 90 90 87 86 89 97 87 94 87 74 71 65 64
69 68 66 65 66 65 64 61 56 54 55 53 51 48 44 43 46 48 52 57 65 73 80 82 84 87 94 91 90 88 91 89 81 83 90 88 90 94 81 74 67 66 65 62
73 70 70 81 80 75 68 64 59 57 61 61 65 61 55 55 56 61 68 76 81 85 88 87 88 88 92 90 85 86 84 81 83 88 86 92 87 77 71 66 58 54 59 61
87 82 84 88 87 84 78 81 70 78 78 78 77 78 79 77 80 82 84 87 90 90 89 89 89 87 87 87 84 80 81 86 86 87 84 81 74 64 57 53 56 55 53 52
97 98 99 93 93 93 93 93 88 87 89 90 87 87 88 87 89 92 92 92 93 90 87 89 87 84 84 82 80 81 80 81 82 80 67 57 53 50 46 46 49 50 46 40
99 98 97 95 97 98 99 99 98 95 92 92 91 91 94 94 95 98 97 96 95 90 85 89 85 82 81 78 79 80 76 72 68 62 60 54 46 46 49 48 45 40 34 34
98 98 99 99 99 99 99 98 97 94 95 93 92 94 97 99 99 98 98 98 96 94 91 91 87 81 82 81 77 70 68 65 63 56 50 47 49 51 45 37 33 34 35 35
98 98 98 98 97 97 96 92 93 95 94 95 96 97 95 95 96 98 97 97 95 93 93 87 79 79 79 74 69 66 62 56 51 50 47 46 41 35 35 35 36 37 36 38
97 97 98 98 96 95 94 90 88 91 92 93 93 94 95 95 96 97 97 96 96 95 90 79 75 75 69 64 61 56 55 52 48 44 38 34 35 33 34 36 38 40 40 41
91 88 96 94 94 95 95 95 93 92 93 93 93 92 90 91 91 89 91 94 90 84 74 71 71 67 63 60 56 52 47 42 36 34 35 35 36 37 34 36 39 42 43 47
80 81 83 84 87 90 88 87 87 88 89 90 89 89 91 92 92 90 89 88 80 68 66 66 63 61 55 48 45 39 35 34 34 36 37 37 39 40 39 37 42 45 50 51
77 77 76 76 76 79 77 78 78 81 82 79 78 74 75 78 83 81 75 70 62 60 58 56 48 44 44 41 35 32 33 35 37 37 40 42 43 44 45 45 45 49 53 57

GFSNW_prec_cthk_024.txt.gz
RH
38 37 35 32 33 31 29 25 28 24 23 23 23 26 27 31 32 31 33 37 39 40 42 42 42 43 43 42 34 32 34 35 34 32 37 41 44 47 46 51 53 53 52 40
38 39 38 35 34 36 33 32 33 30 28 34 32 32 34 35 33 35 38 41 40 42 43 46 46 44 39 34 36 37 35 35 32 35 42 44 46 46 46 46 50 52 66 46
39 40 40 39 38 39 35 34 40 37 34 33 32 34 37 36 36 39 40 41 41 41 43 41 42 39 36 36 36 36 34 34 32 34 32 36 40 43 49 53 63 57 50 51
40 39 43 42 42 38 35 32 37 37 40 35 34 35 36 37 40 41 40 41 40 38 43 39 37 35 35 34 34 34 34 34 36 36 37 40 47 49 52 54 57 66 57 54
38 38 39 42 42 39 36 36 38 35 37 36 35 37 39 40 41 40 39 39 38 35 34 29 31 31 31 30 33 36 37 39 41 43 41 43 47 49 54 59 61 64 66 65
37 37 37 38 38 37 36 37 37 39 42 40 40 40 40 39 38 39 38 37 36 36 31 28 28 29 30 31 34 39 42 45 50 55 49 50 61 51 53 59 62 69 70 66
36 35 35 35 38 37 35 34 38 41 46 43 42 40 39 40 39 39 38 36 32 31 30 29 29 29 31 33 36 40 50 59 62 68 66 71 54 56 58 60 62 66 65 66
36 34 35 35 35 36 36 35 35 38 49 44 44 43 43 42 40 38 36 35 33 33 32 34 40 33 34 35 36 45 54 62 69 73 72 57 52 57 61 65 62 64 64 66
40 33 34 35 36 35 35 35 33 31 35 43 40 39 39 39 38 38 38 36 34 34 37 39 44 35 31 35 44 54 55 61 70 76 84 76 61 65 67 68 68 68 71 72
41 37 34 36 36 37 36 35 34 31 29 32 34 34 33 32 33 36 38 38 39 39 43 47 47 46 39 43 53 56 63 70 76 81 86 70 66 68 68 79 78 77 80 82
43 41 38 37 37 38 38 36 35 34 32 33 33 32 33 33 33 35 37 42 43 44 47 49 50 53 48 49 46 51 56 77 82 84 87 88 69 72 82 80 79 81 83 85
46 44 42 40 39 39 39 39 39 37 36 36 36 34 33 32 33 36 38 37 34 39 45 49 52 55 57 58 57 54 63 65 70 75 71 74 78 78 80 84 84 86 90 86
50 48 47 45 44 43 42 41 41 40 41 42 41 39 37 35 34 34 36 37 38 39 40 46 54 58 55 61 63 63 68 72 74 75 69 77 80 80 84 89 90 88 89 82
55 54 53 53 52 51 50 48 46 45 44 46 46 42 42 40 39 38 37 37 38 39 42 50 55 58 56 64 66 72 75 77 79 77 78 80 84 87 84 81 86 91 85 77
62 62 62 62 62 62 60 59 56 53 50 52 49 47 45 43 41 40 40 40 40 41 48 52 56 56 65 72 74 76 79 79 86 86 86 90 89 81 83 87 86 79 75 76
68 70 70 70 70 70 69 67 64 61 58 57 58 52 48 45 42 41 41 42 44 45 49 53 57 59 70 79 81 74 77 84 90 90 90 89 83 91 89 84 78 74 71 61
71 72 73 73 73 71 71 67 63 63 61 58 57 54 49 46 44 43 44 45 50 55 61 65 69 77 89 90 86 85 86 88 91 91 89 88 92 93 83 76 71 63 56 53
77 74 75 75 73 71 70 68 65 63 62 58 57 54 49 47 50 52 54 59 64 68 76 82 85 90 94 91 86 87 87 88 87 90 89 88 82 79 74 63 55 51 49 47
92 86 87 83 77 74 71 71 76 77 73 68 62 57 58 55 57 63 74 82 86 87 86 86 90 91 89 84 84 84 87 89 86 81 77 76 71 61 54 49 47 47 45 42
98 98 96 89 81 77 76 78 88 87 85 80 76 74 71 68 73 85 90 90 91 90 86 88 87 85 83 85 86 86 87 82 83 78 67 63 54 46 45 47 47 42 35 30
99 97 96 92 90 90 90 89 91 96 89 84 83 88 84 80 84 92 98 94 93 89 83 87 82 79 82 84 80 78 78 77 68 64 59 53 47 44 44 39 34 32 31 31
98 98 96 99 99 98 98 98 98 92 91 88 87 91 94 97 98 99 98 98 96 92 86 89 82 78 81 82 81 77 73 67 63 58 52 48 46 43 37 31 31 30 31 33
99 98 98 98 98 98 98 95 93 93 93 91 92 95 99 99 98 97 98 98 96 89 91 85 79 80 80 82 79 73 66 59 53 52 48 45 38 31 32 31 32 33 33 36
98 98 98 98 97 98 97 96 96 97 99 99 97 96 96 97 98 98 97 97 95 93 88 82 78 79 80 75 69 63 59 54 48 43 37 31 30 29 31 34 36 37 35 35
97 96 97 97 97 97 98 97 96 96 97 96 96 96 97 97 97 96 97 97 93 85 78 76 75 74 70 67 60 58 50 42 35 31 29 30 32 32 31 35 38 40 39 41
89 94 96 97 97 96 96 95 95 95 96 96 95 95 97 97 96 96 94 91 83 77 74 73 71 67 60 56 49 42 38 33 30 30 32 32 34 36 35 37 40 38 41 44
85 90 89 92 91 92 92 91 91 92 92 92 90 91 90 90 93 90 83 76 71 68 69 64 55 50 47 44 40 35 31 31 32 33 35 37 39 40 43 41 41 44 47 51

GFSNW_prec_cthk_027.txt.gz
RH
39 37 34 31 27 22 21 25 31 16 15 21 23 32 24 24 23 26 29 30 32 37 36 36 36 37 39 36 29 30 29 30 31 29 31 32 36 41 41 50 50 55 56 44
40 39 37 35 32 28 29 35 35 19 19 32 26 27 28 29 30 32 31 34 37 38 39 40 40 42 38 29 31 36 29 31 31 32 39 41 40 42 45 46 50 47 60 52
40 41 40 36 36 36 34 37 38 29 26 35 28 29 30 34 35 34 35 38 38 39 39 38 41 37 33 30 32 29 28 29 27 31 30 30 36 38 41 46 56 58 56 57
41 41 42 40 39 40 36 39 42 36 34 33 33 32 34 35 34 35 38 38 39 40 41 39 39 36 31 30 30 31 31 36 30 29 28 29 35 40 43 49 52 63 57 59
42 41 44 43 42 39 38 38 38 36 39 37 37 37 35 35 35 37 38 40 40 38 39 33 34 30 29 31 31 33 32 39 37 35 35 31 34 39 45 47 55 59 62 64
42 40 41 44 43 39 41 34 34 38 37 36 38 36 37 37 38 40 40 40 37 38 37 33 30 29 30 31 33 36 35 37 40 51 41 40 53 49 46 51 60 62 68 69
41 40 39 39 41 39 38 38 38 38 39 39 40 36 39 41 41 40 40 41 40 39 32 28 26 27 28 30 33 33 41 45 55 59 55 63 45 47 51 54 60 61 64 67
43 39 38 38 39 39 37 36 39 40 46 42 43 41 43 43 41 42 42 41 37 33 33 32 34 33 32 33 31 35 42 53 60 64 56 47 49 53 57 59 59 62 65 68
44 39 37 37 37 39 39 36 36 38 42 48 46 46 46 48 48 45 43 38 33 33 36 35 41 37 28 34 38 41 46 53 58 64 74 67 52 60 62 61 67 68 72 70
45 40 36 37 38 38 38 38 36 35 38 45 47 50 49 47 44 45 39 38 36 34 38 42 42 40 31 33 45 51 55 59 62 67 74 62 58 63 62 72 79 77 76 80
47 44 38 35 37 38 38 36 36 37 36 37 39 38 39 37 37 40 39 38 39 41 43 45 43 48 39 38 36 45 51 62 67 71 79 80 66 68 78 79 77 81 85 85
49 45 43 38 36 37 38 40 37 36 40 40 36 34 32 33 36 39 38 37 36 36 43 44 46 47 48 47 48 40 44 51 63 70 69 72 74 79 83 86 86 85 84 79
50 47 44 43 40 39 39 40 40 39 39 41 40 39 34 33 32 35 40 40 39 38 41 45 45 48 45 52 50 42 45 52 65 70 67 73 77 85 85 87 87 82 76 76
52 51 48 46 45 43 42 43 42 43 42 43 45 38 39 37 36 35 37 39 37 40 40 44 46 47 45 51 48 48 50 56 66 71 74 77 83 85 89 91 87 75 75 74
52 52 53 52 50 48 48 48 47 45 49 49 47 45 42 41 40 41 41 41 41 44 46 47 49 48 51 54 54 50 56 67 78 81 82 85 94 95 90 85 78 77 74 73
56 56 56 57 57 57 59 61 57 56 54 52 54 52 48 45 43 45 45 49 50 48 49 50 48 50 53 61 59 55 68 76 78 79 83 89 91 88 84 79 77 74 69 58
66 65 64 63 64 65 71 68 67 64 64 61 61 59 54 52 52 51 53 51 51 50 53 53 50 53 60 67 66 70 78 77 82 85 86 85 86 84 78 75 74 63 51 47
74 74 72 73 74 73 73 72 69 71 70 67 67 61 55 52 55 55 52 53 53 56 58 58 59 67 78 79 72 78 79 81 83 86 87 87 83 74 73 65 54 47 46 45
85 80 81 80 78 75 74 78 76 73 69 66 62 60 60 54 54 55 56 58 60 62 66 70 80 84 85 79 78 78 80 82 85 87 84 72 70 66 59 50 47 46 43 38
96 95 91 82 76 76 79 81 80 76 72 68 63 61 65 63 69 71 75 77 77 75 75 82 83 81 81 83 82 82 83 86 84 82 72 69 65 59 53 50 47 41 35 29
98 97 97 93 91 94 98 98 90 82 73 68 65 66 70 75 81 88 90 93 93 86 78 86 83 78 79 83 84 82 83 81 73 72 70 66 60 54 49 45 39 31 28 28
99 98 98 99 100 99 98 97 92 85 81 75 72 71 73 86 93 95 96 98 97 95 87 91 84 78 80 79 78 79 77 72 72 70 63 57 53 49 43 35 29 28 28 27
99 98 99 99 98 99 98 91 86 84 80 77 78 83 89 94 98 99 99 98 97 90 93 86 80 82 80 78 78 78 76 73 67 60 56 47 41 36 30 27 27 28 29 32
98 98 98 98 98 98 97 93 87 86 86 87 92 98 98 98 99 98 98 97 95 95 91 87 84 81 81 78 76 74 69 65 59 48 42 38 31 27 27 29 30 31 31 34
98 98 97 97 97 97 98 98 98 98 99 97 98 99 98 98 98 97 97 97 96 88 86 87 82 80 79 76 73 71 64 54 46 42 36 30 27 28 28 31 32 35 38 40
97 97 97 97 97 97 97 98 98 97 98 98 97 98 98 98 97 96 97 96 90 89 86 84 81 77 75 73 65 54 49 43 38 33 31 32 31 32 32 33 36 40 44 46
92 97 97 96 96 96 96 97 97 96 98 97 96 96 97 96 97 95 91 91 89 83 82 78 72 66 59 53 51 48 42 35 34 34 35 35 35 37 37 36 43 52 54 53